Time,TemperatureF,DewpointF,PressureIn,WindDirection,WindDirectionDegrees,WindSpeedMPH,WindSpeedGustMPH,Humidity,HourlyPrecipIn,Conditions,Clouds,dailyrainin,SoftwareType,DateUTC
2013-08-22 00:00:00,67.0,51.7,29.79,East,90,0.0,0.0,58,0.00,,,0.00,WeatherCatV1.21B27,2013-08-22 07:00:00,
2013-08-22 00:05:00,67.0,51.7,29.79,East,90,0.0,0.0,58,0.00,,,0.00,WeatherCatV1.21B27,2013-08-22 07:05:00,
2013-08-22 00:10:00,67.0,51.7,29.79,East,90,0.0,0.0,58,0.00,,,0.00,WeatherCatV1.21B27,2013-08-22 07:10:00,
2013-08-22 00:15:00,67.0,51.7,29.79,East,90,0.0,0.0,58,0.00,,,0.00,WeatherCatV1.21B27,2013-08-22 07:15:00,
2013-08-22 00:20:00,67.0,51.7,29.79,East,90,0.0,0.0,58,0.00,,,0.00,WeatherCatV1.21B27,2013-08-22 07:20:00,
2013-08-22 00:25:00,67.0,51.7,29.79,East,90,0.0,0.0,58,0.00,,,0.00,WeatherCatV1.21B27,2013-08-22 07:25:00,
2013-08-22 00:30:00,67.0,51.7,29.79,East,90,0.0,0.0,58,0.00,,,0.00,WeatherCatV1.21B27,2013-08-22 07:30:00,
2013-08-22 00:35:00,67.0,51.7,29.79,East,90,0.0,0.0,58,0.00,,,0.00,WeatherCatV1.21B27,2013-08-22 07:35:00,
2013-08-22 00:40:00,67.0,51.7,29.79,East,90,0.0,0.0,58,0.00,,,0.00,WeatherCatV1.21B27,2013-08-22 07:40:00,
2013-08-22 00:45:00,67.0,51.7,29.79,East,90,0.0,0.0,58,0.00,,,0.00,WeatherCatV1.21B27,2013-08-22 07:45:00,
2013-08-22 00:50:00,67.0,51.7,29.79,East,90,0.0,0.0,58,0.00,,,0.00,WeatherCatV1.21B27,2013-08-22 07:50:00,
2013-08-22 00:55:00,67.0,51.7,29.79,East,90,0.0,0.0,58,0.00,,,0.00,WeatherCatV1.21B27,2013-08-22 07:55:00,
2013-08-22 01:00:00,65.8,51.5,29.80,NNE,22,0.0,1.0,60,0.00,,,0.00,WeatherCatV1.21B27,2013-08-22 08:00:00,
2013-08-22 01:05:00,65.8,51.5,29.80,NNE,22,0.0,1.0,60,0.00,,,0.00,WeatherCatV1.21B27,2013-08-22 08:05:00,
2013-08-22 01:10:00,65.8,51.5,29.80,NNE,22,0.0,1.0,60,0.00,,,0.00,WeatherCatV1.21B27,2013-08-22 08:10:00,
2013-08-22 01:15:00,65.8,51.5,29.80,NNE,22,0.0,1.0,60,0.00,,,0.00,WeatherCatV1.21B27,2013-08-22 08:15:00,
2013-08-22 01:20:00,65.8,51.5,29.80,NNE,22,0.0,1.0,60,0.00,,,0.00,WeatherCatV1.21B27,2013-08-22 08:20:00,
2013-08-22 01:25:00,65.8,51.5,29.80,NNE,22,0.0,1.0,60,0.00,,,0.00,WeatherCatV1.21B27,2013-08-22 08:25:00,
2013-08-22 01:30:00,65.8,51.5,29.80,NNE,22,0.0,1.0,60,0.00,,,0.00,WeatherCatV1.21B27,2013-08-22 08:30:00,
2013-08-22 01:35:00,65.8,51.5,29.80,NNE,22,0.0,1.0,60,0.00,,,0.00,WeatherCatV1.21B27,2013-08-22 08:35:00,
2013-08-22 01:40:00,65.8,51.5,29.80,NNE,22,0.0,1.0,60,0.00,,,0.00,WeatherCatV1.21B27,2013-08-22 08:40:00,
2013-08-22 01:45:00,65.8,51.5,29.80,NNE,22,0.0,1.0,60,0.00,,,0.00,WeatherCatV1.21B27,2013-08-22 08:45:00,
2013-08-22 01:50:00,65.8,51.5,29.80,NNE,22,0.0,1.0,60,0.00,,,0.00,WeatherCatV1.21B27,2013-08-22 08:50:00,
2013-08-22 01:55:00,65.8,51.5,29.80,NNE,22,0.0,1.0,60,0.00,,,0.00,WeatherCatV1.21B27,2013-08-22 08:55:00,
2013-08-22 02:00:00,65.5,51.7,29.79,NE,45,0.0,1.0,61,0.00,,,0.00,WeatherCatV1.21B27,2013-08-22 09:00:00,
2013-08-22 02:05:00,65.5,51.7,29.79,NE,45,0.0,1.0,61,0.00,,,0.00,WeatherCatV1.21B27,2013-08-22 09:05:00,
2013-08-22 02:10:00,65.5,51.7,29.79,NE,45,0.0,1.0,61,0.00,,,0.00,WeatherCatV1.21B27,2013-08-22 09:10:00,
2013-08-22 02:15:00,65.5,51.7,29.79,NE,45,0.0,1.0,61,0.00,,,0.00,WeatherCatV1.21B27,2013-08-22 09:15:00,
2013-08-22 02:20:00,65.5,51.7,29.79,NE,45,0.0,1.0,61,0.00,,,0.00,WeatherCatV1.21B27,2013-08-22 09:20:00,
2013-08-22 02:25:00,65.5,51.7,29.79,NE,45,0.0,1.0,61,0.00,,,0.00,WeatherCatV1.21B27,2013-08-22 09:25:00,
2013-08-22 02:30:00,65.5,51.7,29.79,NE,45,0.0,1.0,61,0.00,,,0.00,WeatherCatV1.21B27,2013-08-22 09:30:00,
2013-08-22 02:35:00,65.5,51.7,29.79,NE,45,0.0,1.0,61,0.00,,,0.00,WeatherCatV1.21B27,2013-08-22 09:35:00,
2013-08-22 02:40:00,65.5,51.7,29.79,NE,45,0.0,1.0,61,0.00,,,0.00,WeatherCatV1.21B27,2013-08-22 09:40:00,
2013-08-22 02:45:00,65.5,51.7,29.79,NE,45,0.0,1.0,61,0.00,,,0.00,WeatherCatV1.21B27,2013-08-22 09:45:00,
2013-08-22 02:50:00,65.5,51.7,29.79,NE,45,0.0,1.0,61,0.00,,,0.00,WeatherCatV1.21B27,2013-08-22 09:50:00,
2013-08-22 02:55:00,65.5,51.7,29.79,NE,45,0.0,1.0,61,0.00,,,0.00,WeatherCatV1.21B27,2013-08-22 09:55:00,
2013-08-22 03:00:00,63.5,51.1,29.78,NE,45,0.0,0.0,64,0.00,,,0.00,WeatherCatV1.21B27,2013-08-22 10:00:00,
2013-08-22 03:05:00,63.5,51.1,29.78,NE,45,0.0,0.0,64,0.00,,,0.00,WeatherCatV1.21B27,2013-08-22 10:05:00,
2013-08-22 03:10:00,63.5,51.1,29.78,NE,45,0.0,0.0,64,0.00,,,0.00,WeatherCatV1.21B27,2013-08-22 10:10:00,
2013-08-22 03:15:00,63.5,51.1,29.78,NE,45,0.0,0.0,64,0.00,,,0.00,WeatherCatV1.21B27,2013-08-22 10:15:00,
2013-08-22 03:20:00,63.5,51.1,29.78,NE,45,0.0,0.0,64,0.00,,,0.00,WeatherCatV1.21B27,2013-08-22 10:20:00,
2013-08-22 03:25:00,63.5,51.1,29.78,NE,45,0.0,0.0,64,0.00,,,0.00,WeatherCatV1.21B27,2013-08-22 10:25:00,
2013-08-22 03:30:00,63.5,51.1,29.78,NE,45,0.0,0.0,64,0.00,,,0.00,WeatherCatV1.21B27,2013-08-22 10:30:00,
2013-08-22 03:35:00,63.5,51.1,29.78,NE,45,0.0,0.0,64,0.00,,,0.00,WeatherCatV1.21B27,2013-08-22 10:35:00,
2013-08-22 03:40:00,63.5,51.1,29.78,NE,45,0.0,0.0,64,0.00,,,0.00,WeatherCatV1.21B27,2013-08-22 10:40:00,
2013-08-22 03:45:00,63.5,51.1,29.78,NE,45,0.0,0.0,64,0.00,,,0.00,WeatherCatV1.21B27,2013-08-22 10:45:00,
2013-08-22 03:50:00,63.5,51.1,29.78,NE,45,0.0,0.0,64,0.00,,,0.00,WeatherCatV1.21B27,2013-08-22 10:50:00,
2013-08-22 03:55:00,63.5,51.1,29.78,NE,45,0.0,0.0,64,0.00,,,0.00,WeatherCatV1.21B27,2013-08-22 10:55:00,
2013-08-22 04:00:00,63.2,51.2,29.78,NE,45,0.0,0.0,65,0.00,,,0.00,WeatherCatV1.21B27,2013-08-22 11:00:00,
2013-08-22 04:05:00,63.2,51.2,29.78,NE,45,0.0,0.0,65,0.00,,,0.00,WeatherCatV1.21B27,2013-08-22 11:05:00,
2013-08-22 04:10:00,63.2,51.2,29.78,NE,45,0.0,0.0,65,0.00,,,0.00,WeatherCatV1.21B27,2013-08-22 11:10:00,
2013-08-22 04:15:00,63.2,51.2,29.78,NE,45,0.0,0.0,65,0.00,,,0.00,WeatherCatV1.21B27,2013-08-22 11:15:00,
2013-08-22 04:20:00,63.2,51.2,29.78,NE,45,0.0,0.0,65,0.00,,,0.00,WeatherCatV1.21B27,2013-08-22 11:20:00,
2013-08-22 04:25:00,63.2,51.2,29.78,NE,45,0.0,0.0,65,0.00,,,0.00,WeatherCatV1.21B27,2013-08-22 11:25:00,
2013-08-22 04:30:00,63.2,51.2,29.78,NE,45,0.0,0.0,65,0.00,,,0.00,WeatherCatV1.21B27,2013-08-22 11:30:00,
2013-08-22 04:35:00,63.2,51.2,29.78,NE,45,0.0,0.0,65,0.00,,,0.00,WeatherCatV1.21B27,2013-08-22 11:35:00,
2013-08-22 04:40:00,63.2,51.2,29.78,NE,45,0.0,0.0,65,0.00,,,0.00,WeatherCatV1.21B27,2013-08-22 11:40:00,
2013-08-22 04:45:00,63.2,51.2,29.78,NE,45,0.0,0.0,65,0.00,,,0.00,WeatherCatV1.21B27,2013-08-22 11:45:00,
2013-08-22 04:50:00,63.2,51.2,29.78,NE,45,0.0,0.0,65,0.00,,,0.00,WeatherCatV1.21B27,2013-08-22 11:50:00,
2013-08-22 04:55:00,63.2,51.2,29.78,NE,45,0.0,0.0,65,0.00,,,0.00,WeatherCatV1.21B27,2013-08-22 11:55:00,
2013-08-22 05:00:00,63.7,51.3,29.78,NE,45,0.0,0.0,64,0.00,,,0.00,WeatherCatV1.21B27,2013-08-22 12:00:00,
2013-08-22 05:05:00,63.7,51.3,29.78,NE,45,0.0,0.0,64,0.00,,,0.00,WeatherCatV1.21B27,2013-08-22 12:05:00,
2013-08-22 05:10:00,63.7,51.3,29.78,NE,45,0.0,0.0,64,0.00,,,0.00,WeatherCatV1.21B27,2013-08-22 12:10:00,
2013-08-22 05:15:00,63.7,51.3,29.78,NE,45,0.0,0.0,64,0.00,,,0.00,WeatherCatV1.21B27,2013-08-22 12:15:00,
2013-08-22 05:20:00,63.7,51.3,29.78,NE,45,0.0,0.0,64,0.00,,,0.00,WeatherCatV1.21B27,2013-08-22 12:20:00,
2013-08-22 05:25:00,63.7,51.3,29.78,NE,45,0.0,0.0,64,0.00,,,0.00,WeatherCatV1.21B27,2013-08-22 12:25:00,
2013-08-22 05:30:00,63.7,51.3,29.78,NE,45,0.0,0.0,64,0.00,,,0.00,WeatherCatV1.21B27,2013-08-22 12:30:00,
2013-08-22 05:35:00,63.7,51.3,29.78,NE,45,0.0,0.0,64,0.00,,,0.00,WeatherCatV1.21B27,2013-08-22 12:35:00,
2013-08-22 05:40:00,63.7,51.3,29.78,NE,45,0.0,0.0,64,0.00,,,0.00,WeatherCatV1.21B27,2013-08-22 12:40:00,
2013-08-22 05:45:00,63.7,51.3,29.78,NE,45,0.0,0.0,64,0.00,,,0.00,WeatherCatV1.21B27,2013-08-22 12:45:00,
2013-08-22 05:50:00,63.7,51.3,29.78,NE,45,0.0,0.0,64,0.00,,,0.00,WeatherCatV1.21B27,2013-08-22 12:50:00,
2013-08-22 05:55:00,63.7,51.3,29.78,NE,45,0.0,0.0,64,0.00,,,0.00,WeatherCatV1.21B27,2013-08-22 12:55:00,
2013-08-22 06:00:00,61.9,50.4,29.78,NE,45,0.0,0.0,66,0.00,,,0.00,WeatherCatV1.21B27,2013-08-22 13:00:00,
2013-08-22 06:05:00,61.9,50.4,29.78,NE,45,0.0,0.0,66,0.00,,,0.00,WeatherCatV1.21B27,2013-08-22 13:05:00,
2013-08-22 06:10:00,61.9,50.4,29.78,NE,45,0.0,0.0,66,0.00,,,0.00,WeatherCatV1.21B27,2013-08-22 13:10:00,
2013-08-22 06:15:00,61.9,50.4,29.78,NE,45,0.0,0.0,66,0.00,,,0.00,WeatherCatV1.21B27,2013-08-22 13:15:00,
2013-08-22 06:20:00,61.9,50.4,29.78,NE,45,0.0,0.0,66,0.00,,,0.00,WeatherCatV1.21B27,2013-08-22 13:20:00,
2013-08-22 06:25:00,61.9,50.4,29.78,NE,45,0.0,0.0,66,0.00,,,0.00,WeatherCatV1.21B27,2013-08-22 13:25:00,
2013-08-22 06:30:00,61.9,50.4,29.78,NE,45,0.0,0.0,66,0.00,,,0.00,WeatherCatV1.21B27,2013-08-22 13:30:00,
2013-08-22 06:35:00,61.9,50.4,29.78,NE,45,0.0,0.0,66,0.00,,,0.00,WeatherCatV1.21B27,2013-08-22 13:35:00,
2013-08-22 06:40:00,61.9,50.4,29.78,NE,45,0.0,0.0,66,0.00,,,0.00,WeatherCatV1.21B27,2013-08-22 13:40:00,
2013-08-22 06:45:00,61.9,50.4,29.78,NE,45,0.0,0.0,66,0.00,,,0.00,WeatherCatV1.21B27,2013-08-22 13:45:00,
2013-08-22 06:50:00,61.9,50.4,29.78,NE,45,0.0,0.0,66,0.00,,,0.00,WeatherCatV1.21B27,2013-08-22 13:50:00,
2013-08-22 06:55:00,61.9,50.4,29.78,NE,45,0.0,0.0,66,0.00,,,0.00,WeatherCatV1.21B27,2013-08-22 13:55:00,
2013-08-22 07:00:00,61.9,50.4,29.79,NE,45,0.0,0.0,66,0.00,,,0.00,WeatherCatV1.21B27,2013-08-22 14:00:00,
2013-08-22 07:05:00,61.9,50.4,29.79,NE,45,0.0,0.0,66,0.00,,,0.00,WeatherCatV1.21B27,2013-08-22 14:05:00,
2013-08-22 07:10:00,61.9,50.4,29.79,NE,45,0.0,0.0,66,0.00,,,0.00,WeatherCatV1.21B27,2013-08-22 14:10:00,
2013-08-22 07:15:00,61.9,50.4,29.79,NE,45,0.0,0.0,66,0.00,,,0.00,WeatherCatV1.21B27,2013-08-22 14:15:00,
2013-08-22 07:20:00,61.9,50.4,29.79,NE,45,0.0,0.0,66,0.00,,,0.00,WeatherCatV1.21B27,2013-08-22 14:20:00,
2013-08-22 07:25:00,61.9,50.4,29.79,NE,45,0.0,0.0,66,0.00,,,0.00,WeatherCatV1.21B27,2013-08-22 14:25:00,
2013-08-22 07:30:00,61.9,50.4,29.79,NE,45,0.0,0.0,66,0.00,,,0.00,WeatherCatV1.21B27,2013-08-22 14:30:00,
2013-08-22 07:35:00,61.9,50.4,29.79,NE,45,0.0,0.0,66,0.00,,,0.00,WeatherCatV1.21B27,2013-08-22 14:35:00,
2013-08-22 07:40:00,61.9,50.4,29.79,NE,45,0.0,0.0,66,0.00,,,0.00,WeatherCatV1.21B27,2013-08-22 14:40:00,
2013-08-22 07:45:00,61.9,50.4,29.79,NE,45,0.0,0.0,66,0.00,,,0.00,WeatherCatV1.21B27,2013-08-22 14:45:00,
2013-08-22 07:50:00,61.9,50.4,29.79,NE,45,0.0,0.0,66,0.00,,,0.00,WeatherCatV1.21B27,2013-08-22 14:50:00,
2013-08-22 07:55:00,61.9,50.4,29.79,NE,45,0.0,0.0,66,0.00,,,0.00,WeatherCatV1.21B27,2013-08-22 14:55:00,
2013-08-22 08:00:00,61.4,48.7,29.81,NE,45,0.0,0.0,63,0.00,,,0.00,WeatherCatV1.21B27,2013-08-22 15:00:00,
2013-08-22 08:05:00,61.4,48.7,29.81,NE,45,0.0,0.0,63,0.00,,,0.00,WeatherCatV1.21B27,2013-08-22 15:05:00,
2013-08-22 08:10:00,61.4,48.7,29.81,NE,45,0.0,0.0,63,0.00,,,0.00,WeatherCatV1.21B27,2013-08-22 15:10:00,
2013-08-22 08:15:00,61.4,48.7,29.81,NE,45,0.0,0.0,63,0.00,,,0.00,WeatherCatV1.21B27,2013-08-22 15:15:00,
2013-08-22 08:20:00,61.4,48.7,29.81,NE,45,0.0,0.0,63,0.00,,,0.00,WeatherCatV1.21B27,2013-08-22 15:20:00,
2013-08-22 08:25:00,61.4,48.7,29.81,NE,45,0.0,0.0,63,0.00,,,0.00,WeatherCatV1.21B27,2013-08-22 15:25:00,
2013-08-22 08:30:00,61.4,48.7,29.81,NE,45,0.0,0.0,63,0.00,,,0.00,WeatherCatV1.21B27,2013-08-22 15:30:00,
2013-08-22 08:35:00,61.4,48.7,29.81,NE,45,0.0,0.0,63,0.00,,,0.00,WeatherCatV1.21B27,2013-08-22 15:35:00,
2013-08-22 08:40:00,61.4,48.7,29.81,NE,45,0.0,0.0,63,0.00,,,0.00,WeatherCatV1.21B27,2013-08-22 15:40:00,
2013-08-22 08:45:00,61.4,48.7,29.81,NE,45,0.0,0.0,63,0.00,,,0.00,WeatherCatV1.21B27,2013-08-22 15:45:00,
2013-08-22 08:50:00,61.4,48.7,29.81,NE,45,0.0,0.0,63,0.00,,,0.00,WeatherCatV1.21B27,2013-08-22 15:50:00,
2013-08-22 08:55:00,61.4,48.7,29.81,NE,45,0.0,0.0,63,0.00,,,0.00,WeatherCatV1.21B27,2013-08-22 15:55:00,
2013-08-22 09:00:00,63.8,51.8,29.81,NE,45,0.0,0.0,65,0.00,,,0.00,WeatherCatV1.21B27,2013-08-22 16:00:00,
2013-08-22 09:05:00,63.8,51.8,29.81,NE,45,0.0,0.0,65,0.00,,,0.00,WeatherCatV1.21B27,2013-08-22 16:05:00,
2013-08-22 09:10:00,63.8,51.8,29.81,NE,45,0.0,0.0,65,0.00,,,0.00,WeatherCatV1.21B27,2013-08-22 16:10:00,
2013-08-22 09:15:00,63.8,51.8,29.81,NE,45,0.0,0.0,65,0.00,,,0.00,WeatherCatV1.21B27,2013-08-22 16:15:00,
2013-08-22 09:20:00,63.8,51.8,29.81,NE,45,0.0,0.0,65,0.00,,,0.00,WeatherCatV1.21B27,2013-08-22 16:20:00,
2013-08-22 09:25:00,63.8,51.8,29.81,NE,45,0.0,0.0,65,0.00,,,0.00,WeatherCatV1.21B27,2013-08-22 16:25:00,
2013-08-22 09:30:00,63.8,51.8,29.81,NE,45,0.0,0.0,65,0.00,,,0.00,WeatherCatV1.21B27,2013-08-22 16:30:00,
2013-08-22 09:35:00,63.8,51.8,29.81,NE,45,0.0,0.0,65,0.00,,,0.00,WeatherCatV1.21B27,2013-08-22 16:35:00,
2013-08-22 09:40:00,63.8,51.8,29.81,NE,45,0.0,0.0,65,0.00,,,0.00,WeatherCatV1.21B27,2013-08-22 16:40:00,
2013-08-22 09:45:00,63.8,51.8,29.81,NE,45,0.0,0.0,65,0.00,,,0.00,WeatherCatV1.21B27,2013-08-22 16:45:00,
2013-08-22 09:50:00,63.8,51.8,29.81,NE,45,0.0,0.0,65,0.00,,,0.00,WeatherCatV1.21B27,2013-08-22 16:50:00,
2013-08-22 09:55:00,63.8,51.8,29.81,NE,45,0.0,0.0,65,0.00,,,0.00,WeatherCatV1.21B27,2013-08-22 16:55:00,
2013-08-22 10:00:00,70.4,57.6,29.81,NE,45,0.0,0.0,64,0.00,,,0.00,WeatherCatV1.21B27,2013-08-22 17:00:00,
2013-08-22 10:05:00,70.4,57.6,29.81,NE,45,0.0,0.0,64,0.00,,,0.00,WeatherCatV1.21B27,2013-08-22 17:05:00,
2013-08-22 10:10:00,70.4,57.6,29.81,NE,45,0.0,0.0,64,0.00,,,0.00,WeatherCatV1.21B27,2013-08-22 17:10:00,
2013-08-22 10:15:00,70.4,57.6,29.81,NE,45,0.0,0.0,64,0.00,,,0.00,WeatherCatV1.21B27,2013-08-22 17:15:00,
2013-08-22 10:20:00,70.4,57.6,29.81,NE,45,0.0,0.0,64,0.00,,,0.00,WeatherCatV1.21B27,2013-08-22 17:20:00,
2013-08-22 10:25:00,70.4,57.6,29.81,NE,45,0.0,0.0,64,0.00,,,0.00,WeatherCatV1.21B27,2013-08-22 17:25:00,
2013-08-22 10:30:00,70.4,57.6,29.81,NE,45,0.0,0.0,64,0.00,,,0.00,WeatherCatV1.21B27,2013-08-22 17:30:00,
2013-08-22 10:35:00,70.4,57.6,29.81,NE,45,0.0,0.0,64,0.00,,,0.00,WeatherCatV1.21B27,2013-08-22 17:35:00,
2013-08-22 10:40:00,70.4,57.6,29.81,NE,45,0.0,0.0,64,0.00,,,0.00,WeatherCatV1.21B27,2013-08-22 17:40:00,
2013-08-22 10:45:00,70.4,57.6,29.81,NE,45,0.0,0.0,64,0.00,,,0.00,WeatherCatV1.21B27,2013-08-22 17:45:00,
2013-08-22 10:50:00,70.4,57.6,29.81,NE,45,0.0,0.0,64,0.00,,,0.00,WeatherCatV1.21B27,2013-08-22 17:50:00,
2013-08-22 10:55:00,70.4,57.6,29.81,NE,45,0.0,0.0,64,0.00,,,0.00,WeatherCatV1.21B27,2013-08-22 17:55:00,
2013-08-22 11:00:00,76.7,53.1,29.82,NE,45,0.0,0.0,44,0.00,,,0.00,WeatherCatV1.21B27,2013-08-22 18:00:00,
2013-08-22 11:05:00,76.7,53.1,29.82,NE,45,0.0,0.0,44,0.00,,,0.00,WeatherCatV1.21B27,2013-08-22 18:05:00,
2013-08-22 11:10:00,76.7,53.1,29.82,NE,45,0.0,0.0,44,0.00,,,0.00,WeatherCatV1.21B27,2013-08-22 18:10:00,
2013-08-22 11:15:00,76.7,53.1,29.82,NE,45,0.0,0.0,44,0.00,,,0.00,WeatherCatV1.21B27,2013-08-22 18:15:00,
2013-08-22 11:20:00,76.7,53.1,29.82,NE,45,0.0,0.0,44,0.00,,,0.00,WeatherCatV1.21B27,2013-08-22 18:20:00,
2013-08-22 11:25:00,76.7,53.1,29.82,NE,45,0.0,0.0,44,0.00,,,0.00,WeatherCatV1.21B27,2013-08-22 18:25:00,
2013-08-22 11:30:00,76.7,53.1,29.82,NE,45,0.0,0.0,44,0.00,,,0.00,WeatherCatV1.21B27,2013-08-22 18:30:00,
2013-08-22 11:35:00,76.7,53.1,29.82,NE,45,0.0,0.0,44,0.00,,,0.00,WeatherCatV1.21B27,2013-08-22 18:35:00,
2013-08-22 11:40:00,76.7,53.1,29.82,NE,45,0.0,0.0,44,0.00,,,0.00,WeatherCatV1.21B27,2013-08-22 18:40:00,
2013-08-22 11:45:00,76.7,53.1,29.82,NE,45,0.0,0.0,44,0.00,,,0.00,WeatherCatV1.21B27,2013-08-22 18:45:00,
2013-08-22 11:50:00,76.7,53.1,29.82,NE,45,0.0,0.0,44,0.00,,,0.00,WeatherCatV1.21B27,2013-08-22 18:50:00,
2013-08-22 11:55:00,76.7,53.1,29.82,NE,45,0.0,0.0,44,0.00,,,0.00,WeatherCatV1.21B27,2013-08-22 18:55:00,
2013-08-22 12:00:00,80.9,54.3,29.83,SE,135,1.0,4.0,40,0.00,,,0.00,WeatherCatV1.21B27,2013-08-22 19:00:00,
2013-08-22 12:05:00,80.9,54.3,29.83,SE,135,1.0,4.0,40,0.00,,,0.00,WeatherCatV1.21B27,2013-08-22 19:05:00,
2013-08-22 12:10:00,80.9,54.3,29.83,SE,135,1.0,4.0,40,0.00,,,0.00,WeatherCatV1.21B27,2013-08-22 19:10:00,
2013-08-22 12:15:00,80.9,54.3,29.83,SE,135,1.0,4.0,40,0.00,,,0.00,WeatherCatV1.21B27,2013-08-22 19:15:00,
2013-08-22 12:20:00,80.9,54.3,29.83,SE,135,1.0,4.0,40,0.00,,,0.00,WeatherCatV1.21B27,2013-08-22 19:20:00,
2013-08-22 12:25:00,80.9,54.3,29.83,SE,135,1.0,4.0,40,0.00,,,0.00,WeatherCatV1.21B27,2013-08-22 19:25:00,
2013-08-22 12:30:00,80.9,54.3,29.83,SE,135,1.0,4.0,40,0.00,,,0.00,WeatherCatV1.21B27,2013-08-22 19:30:00,
2013-08-22 12:35:00,80.9,54.3,29.83,SE,135,1.0,4.0,40,0.00,,,0.00,WeatherCatV1.21B27,2013-08-22 19:35:00,
2013-08-22 12:40:00,80.9,54.3,29.83,SE,135,1.0,4.0,40,0.00,,,0.00,WeatherCatV1.21B27,2013-08-22 19:40:00,
2013-08-22 12:45:00,80.9,54.3,29.83,SE,135,1.0,4.0,40,0.00,,,0.00,WeatherCatV1.21B27,2013-08-22 19:45:00,
2013-08-22 12:50:00,80.9,54.3,29.83,SE,135,1.0,4.0,40,0.00,,,0.00,WeatherCatV1.21B27,2013-08-22 19:50:00,
2013-08-22 12:55:00,80.9,54.3,29.83,SE,135,1.0,4.0,40,0.00,,,0.00,WeatherCatV1.21B27,2013-08-22 19:55:00,
2013-08-22 13:00:00,80.9,54.3,29.83,SE,135,1.0,4.0,40,0.00,,,0.00,WeatherCatV1.21B27,2013-08-22 20:00:00,
2013-08-22 13:05:00,83.2,48.5,29.82,West,270,1.0,5.0,30,0.00,,,0.00,WeatherCatV1.21B27,2013-08-22 20:05:00,
2013-08-22 13:10:00,83.2,48.5,29.82,West,270,1.0,5.0,30,0.00,,,0.00,WeatherCatV1.21B27,2013-08-22 20:10:00,
2013-08-22 13:15:00,83.2,48.5,29.82,West,270,1.0,5.0,30,0.00,,,0.00,WeatherCatV1.21B27,2013-08-22 20:15:00,
2013-08-22 13:20:00,83.2,48.5,29.82,West,270,1.0,5.0,30,0.00,,,0.00,WeatherCatV1.21B27,2013-08-22 20:20:00,
2013-08-22 13:25:00,83.2,48.5,29.82,West,270,1.0,5.0,30,0.00,,,0.00,WeatherCatV1.21B27,2013-08-22 20:25:00,
2013-08-22 13:30:00,83.2,48.5,29.82,West,270,1.0,5.0,30,0.00,,,0.00,WeatherCatV1.21B27,2013-08-22 20:30:00,
2013-08-22 13:35:00,83.2,48.5,29.82,West,270,1.0,5.0,30,0.00,,,0.00,WeatherCatV1.21B27,2013-08-22 20:35:00,
2013-08-22 13:40:00,83.2,48.5,29.82,West,270,1.0,5.0,30,0.00,,,0.00,WeatherCatV1.21B27,2013-08-22 20:40:00,
2013-08-22 13:45:00,83.2,48.5,29.82,West,270,1.0,5.0,30,0.00,,,0.00,WeatherCatV1.21B27,2013-08-22 20:45:00,
2013-08-22 13:50:00,83.2,48.5,29.82,West,270,1.0,5.0,30,0.00,,,0.00,WeatherCatV1.21B27,2013-08-22 20:50:00,
2013-08-22 13:55:00,83.2,48.5,29.82,West,270,1.0,5.0,30,0.00,,,0.00,WeatherCatV1.21B27,2013-08-22 20:55:00,
2013-08-22 14:00:00,85.0,49.2,29.82,West,270,2.0,6.0,29,0.00,,,0.00,WeatherCatV1.21B27,2013-08-22 21:00:00,
2013-08-22 14:05:00,85.0,49.2,29.82,West,270,2.0,6.0,29,0.00,,,0.00,WeatherCatV1.21B27,2013-08-22 21:05:00,
2013-08-22 14:10:00,85.0,49.2,29.82,West,270,2.0,6.0,29,0.00,,,0.00,WeatherCatV1.21B27,2013-08-22 21:10:00,
2013-08-22 14:15:00,85.0,49.2,29.82,West,270,2.0,6.0,29,0.00,,,0.00,WeatherCatV1.21B27,2013-08-22 21:15:00,
2013-08-22 14:20:00,85.0,49.2,29.82,West,270,2.0,6.0,29,0.00,,,0.00,WeatherCatV1.21B27,2013-08-22 21:20:00,
2013-08-22 14:25:00,85.0,49.2,29.82,West,270,2.0,6.0,29,0.00,,,0.00,WeatherCatV1.21B27,2013-08-22 21:25:00,
2013-08-22 14:30:00,85.0,49.2,29.82,West,270,2.0,6.0,29,0.00,,,0.00,WeatherCatV1.21B27,2013-08-22 21:30:00,
2013-08-22 14:35:00,85.0,49.2,29.82,West,270,2.0,6.0,29,0.00,,,0.00,WeatherCatV1.21B27,2013-08-22 21:35:00,
2013-08-22 14:40:00,85.0,49.2,29.82,West,270,2.0,6.0,29,0.00,,,0.00,WeatherCatV1.21B27,2013-08-22 21:40:00,
2013-08-22 14:45:00,85.0,49.2,29.82,West,270,2.0,6.0,29,0.00,,,0.00,WeatherCatV1.21B27,2013-08-22 21:45:00,
2013-08-22 14:50:00,85.0,49.2,29.82,West,270,2.0,6.0,29,0.00,,,0.00,WeatherCatV1.21B27,2013-08-22 21:50:00,
2013-08-22 14:55:00,85.0,49.2,29.82,West,270,2.0,6.0,29,0.00,,,0.00,WeatherCatV1.21B27,2013-08-22 21:55:00,
2013-08-22 15:00:00,86.2,48.2,29.81,West,270,2.0,7.0,27,0.00,,,0.00,WeatherCatV1.21B27,2013-08-22 22:00:00,
2013-08-22 15:05:00,86.2,48.2,29.81,West,270,2.0,7.0,27,0.00,,,0.00,WeatherCatV1.21B27,2013-08-22 22:05:00,
2013-08-22 15:10:00,86.2,48.2,29.81,West,270,2.0,7.0,27,0.00,,,0.00,WeatherCatV1.21B27,2013-08-22 22:10:00,
2013-08-22 15:15:00,86.2,48.2,29.81,West,270,2.0,7.0,27,0.00,,,0.00,WeatherCatV1.21B27,2013-08-22 22:15:00,
2013-08-22 15:20:00,86.2,48.2,29.81,West,270,2.0,7.0,27,0.00,,,0.00,WeatherCatV1.21B27,2013-08-22 22:20:00,
2013-08-22 15:25:00,86.2,48.2,29.81,West,270,2.0,7.0,27,0.00,,,0.00,WeatherCatV1.21B27,2013-08-22 22:25:00,
2013-08-22 15:30:00,86.2,48.2,29.81,West,270,2.0,7.0,27,0.00,,,0.00,WeatherCatV1.21B27,2013-08-22 22:30:00,
2013-08-22 15:35:00,86.2,48.2,29.81,West,270,2.0,7.0,27,0.00,,,0.00,WeatherCatV1.21B27,2013-08-22 22:35:00,
2013-08-22 15:40:00,86.2,48.2,29.81,West,270,2.0,7.0,27,0.00,,,0.00,WeatherCatV1.21B27,2013-08-22 22:40:00,
2013-08-22 15:45:00,86.2,48.2,29.81,West,270,2.0,7.0,27,0.00,,,0.00,WeatherCatV1.21B27,2013-08-22 22:45:00,
2013-08-22 15:50:00,86.2,48.2,29.81,West,270,2.0,7.0,27,0.00,,,0.00,WeatherCatV1.21B27,2013-08-22 22:50:00,
2013-08-22 15:55:00,86.2,48.2,29.81,West,270,2.0,7.0,27,0.00,,,0.00,WeatherCatV1.21B27,2013-08-22 22:55:00,
2013-08-22 16:00:00,85.2,45.4,29.79,West,270,2.0,8.0,25,0.00,,,0.00,WeatherCatV1.21B27,2013-08-22 23:00:00,
2013-08-22 16:05:00,85.2,45.4,29.79,West,270,2.0,8.0,25,0.00,,,0.00,WeatherCatV1.21B27,2013-08-22 23:05:00,
2013-08-22 16:10:00,85.2,45.4,29.79,West,270,2.0,8.0,25,0.00,,,0.00,WeatherCatV1.21B27,2013-08-22 23:10:00,
2013-08-22 16:15:00,85.2,45.4,29.79,West,270,2.0,8.0,25,0.00,,,0.00,WeatherCatV1.21B27,2013-08-22 23:15:00,
2013-08-22 16:20:00,85.2,45.4,29.79,West,270,2.0,8.0,25,0.00,,,0.00,WeatherCatV1.21B27,2013-08-22 23:20:00,
2013-08-22 16:25:00,85.2,45.4,29.79,West,270,2.0,8.0,25,0.00,,,0.00,WeatherCatV1.21B27,2013-08-22 23:25:00,
2013-08-22 16:30:00,85.2,45.4,29.79,West,270,2.0,8.0,25,0.00,,,0.00,WeatherCatV1.21B27,2013-08-22 23:30:00,
2013-08-22 16:35:00,85.2,45.4,29.79,West,270,2.0,8.0,25,0.00,,,0.00,WeatherCatV1.21B27,2013-08-22 23:35:00,
2013-08-22 16:40:00,85.2,45.4,29.79,West,270,2.0,8.0,25,0.00,,,0.00,WeatherCatV1.21B27,2013-08-22 23:40:00,
2013-08-22 16:45:00,85.2,45.4,29.79,West,270,2.0,8.0,25,0.00,,,0.00,WeatherCatV1.21B27,2013-08-22 23:45:00,
2013-08-22 16:50:00,85.2,45.4,29.79,West,270,2.0,8.0,25,0.00,,,0.00,WeatherCatV1.21B27,2013-08-22 23:50:00,
2013-08-22 16:55:00,85.2,45.4,29.79,West,270,2.0,8.0,25,0.00,,,0.00,WeatherCatV1.21B27,2013-08-22 23:55:00,
2013-08-22 17:00:00,83.9,45.3,29.76,WSW,238,2.0,2.0,26,0.00,,,0.00,WeatherCatV1.21B27,2013-08-23 00:00:00,
2013-08-22 17:12:00,84.0,43.3,29.76,South,185,1.0,3.0,24,0.00,,,0.00,WeatherCatV1.21B27,2013-08-23 00:12:00,
2013-08-22 17:17:00,83.8,44.2,29.76,West,266,2.0,4.0,25,0.00,,,0.00,WeatherCatV1.21B27,2013-08-23 00:17:00,
2013-08-22 17:22:00,83.3,43.8,29.76,West,278,3.0,3.0,25,0.00,,,0.00,WeatherCatV1.21B27,2013-08-23 00:22:00,
2013-08-22 17:27:00,83.0,43.5,29.76,WSW,245,2.0,2.0,25,0.00,,,0.00,WeatherCatV1.21B27,2013-08-23 00:27:00,
2013-08-22 17:32:00,83.1,42.5,29.76,West,259,3.0,3.0,24,0.00,,,0.00,WeatherCatV1.21B27,2013-08-23 00:32:00,
2013-08-22 17:37:00,83.1,44.6,29.76,West,271,1.0,5.0,26,0.00,,,0.00,WeatherCatV1.21B27,2013-08-23 00:37:00,
2013-08-22 17:42:00,82.7,43.3,29.76,WSW,253,2.0,3.0,25,0.00,,,0.00,WeatherCatV1.21B27,2013-08-23 00:42:00,
2013-08-22 17:47:00,82.5,44.1,29.76,West,266,1.0,3.0,26,0.00,,,0.00,WeatherCatV1.21B27,2013-08-23 00:47:00,
2013-08-22 17:52:00,82.6,45.2,29.76,South,183,2.0,2.0,27,0.00,,,0.00,WeatherCatV1.21B27,2013-08-23 00:52:00,
2013-08-22 17:57:00,82.7,46.2,29.76,WSW,258,1.0,2.0,28,0.00,,,0.00,WeatherCatV1.21B27,2013-08-23 00:57:00,
2013-08-22 18:02:00,82.6,44.2,29.76,WNW,287,0.0,4.0,26,0.00,,,0.00,WeatherCatV1.21B27,2013-08-23 01:02:00,
2013-08-22 18:07:00,82.3,42.9,29.76,West,267,1.0,2.0,25,0.00,,,0.00,WeatherCatV1.21B27,2013-08-23 01:07:00,
2013-08-22 18:12:00,82.1,44.8,29.76,West,267,1.0,2.0,27,0.00,,,0.00,WeatherCatV1.21B27,2013-08-23 01:12:00,
2013-08-22 18:17:00,81.9,44.6,29.76,WSW,257,0.0,0.0,27,0.00,,,0.00,WeatherCatV1.21B27,2013-08-23 01:17:00,
2013-08-22 18:22:00,82.0,43.7,29.76,West,259,1.0,2.0,26,0.00,,,0.00,WeatherCatV1.21B27,2013-08-23 01:22:00,
2013-08-22 18:27:00,81.7,43.5,29.76,West,269,1.0,3.0,26,0.00,,,0.00,WeatherCatV1.21B27,2013-08-23 01:27:00,
2013-08-22 18:32:00,81.5,44.3,29.76,West,264,2.0,2.0,27,0.00,,,0.00,WeatherCatV1.21B27,2013-08-23 01:32:00,
2013-08-22 18:37:00,81.3,45.0,29.76,West,266,0.0,1.0,28,0.00,,,0.00,WeatherCatV1.21B27,2013-08-23 01:37:00,
2013-08-22 18:42:00,81.3,45.0,29.76,West,263,1.0,1.0,28,0.00,,,0.00,WeatherCatV1.21B27,2013-08-23 01:42:00,
2013-08-22 18:47:00,81.1,45.8,29.76,West,259,1.0,1.0,29,0.00,,,0.00,WeatherCatV1.21B27,2013-08-23 01:47:00,
2013-08-22 18:52:00,80.8,45.5,29.76,West,264,0.0,1.0,29,0.00,,,0.00,WeatherCatV1.21B27,2013-08-23 01:52:00,
2013-08-22 18:57:00,80.6,45.4,29.76,WSW,256,0.0,1.0,29,0.00,,,0.00,WeatherCatV1.21B27,2013-08-23 01:57:00,
2013-08-22 19:02:00,80.4,46.1,29.75,WSW,253,0.0,0.0,30,0.00,,,0.00,WeatherCatV1.21B27,2013-08-23 02:02:00,
2013-08-22 19:07:00,80.1,46.7,29.76,WSW,246,0.0,0.0,31,0.00,,,0.00,WeatherCatV1.21B27,2013-08-23 02:07:00,
2013-08-22 19:12:00,79.8,44.7,29.76,WSW,242,0.0,2.0,29,0.00,,,0.00,WeatherCatV1.21B27,2013-08-23 02:12:00,
2013-08-22 19:17:00,79.6,45.4,29.76,WSW,242,0.0,0.0,30,0.00,,,0.00,WeatherCatV1.21B27,2013-08-23 02:17:00,
2013-08-22 19:22:00,79.3,46.0,29.76,WSW,242,0.0,1.0,31,0.00,,,0.00,WeatherCatV1.21B27,2013-08-23 02:22:00,
2013-08-22 19:27:00,79.0,45.8,29.76,WSW,242,0.0,0.0,31,0.00,,,0.00,WeatherCatV1.21B27,2013-08-23 02:27:00,
2013-08-22 19:32:00,78.6,45.4,29.76,WSW,243,0.0,0.0,31,0.00,,,0.00,WeatherCatV1.21B27,2013-08-23 02:32:00,
2013-08-22 19:37:00,78.2,45.1,29.76,WSW,242,0.0,0.0,31,0.00,,,0.00,WeatherCatV1.21B27,2013-08-23 02:37:00,
2013-08-22 19:42:00,77.7,45.5,29.76,WSW,243,0.0,0.0,32,0.00,,,0.00,WeatherCatV1.21B27,2013-08-23 02:42:00,
2013-08-22 19:47:00,77.0,45.7,29.76,WSW,242,0.0,0.0,33,0.00,,,0.00,WeatherCatV1.21B27,2013-08-23 02:47:00,
2013-08-22 19:52:00,76.4,45.9,29.76,WSW,242,0.0,0.0,34,0.00,,,0.00,WeatherCatV1.21B27,2013-08-23 02:52:00,
2013-08-22 19:57:00,75.9,45.5,29.76,WSW,242,0.0,0.0,34,0.00,,,0.00,WeatherCatV1.21B27,2013-08-23 02:57:00,
2013-08-22 20:02:00,75.6,46.0,29.76,WSW,241,0.0,1.0,35,0.00,,,0.00,WeatherCatV1.21B27,2013-08-23 03:02:00,
2013-08-22 20:07:00,75.1,47.0,29.76,WSW,242,0.0,0.0,37,0.00,,,0.00,WeatherCatV1.21B27,2013-08-23 03:07:00,
2013-08-22 20:12:00,74.6,46.6,29.77,WSW,241,0.0,0.0,37,0.00,,,0.00,WeatherCatV1.21B27,2013-08-23 03:12:00,
2013-08-22 20:17:00,74.0,48.1,29.77,WSW,241,0.0,0.0,40,0.00,,,0.00,WeatherCatV1.21B27,2013-08-23 03:17:00,
2013-08-22 20:22:00,73.6,46.4,29.77,WSW,242,0.0,0.0,38,0.00,,,0.00,WeatherCatV1.21B27,2013-08-23 03:22:00,
2013-08-22 20:27:00,73.4,46.9,29.77,WSW,241,0.0,0.0,39,0.00,,,0.00,WeatherCatV1.21B27,2013-08-23 03:27:00,
2013-08-22 20:32:00,73.2,46.1,29.77,WSW,242,0.0,0.0,38,0.00,,,0.00,WeatherCatV1.21B27,2013-08-23 03:32:00,
2013-08-22 20:37:00,72.9,47.8,29.77,WSW,242,0.0,0.0,41,0.00,,,0.00,WeatherCatV1.21B27,2013-08-23 03:37:00,
2013-08-22 20:42:00,72.5,46.8,29.77,WSW,241,0.0,0.0,40,0.00,,,0.00,WeatherCatV1.21B27,2013-08-23 03:42:00,
2013-08-22 20:47:00,72.2,47.8,29.77,WSW,242,0.0,0.0,42,0.00,,,0.00,WeatherCatV1.21B27,2013-08-23 03:47:00,
2013-08-22 20:52:00,71.9,47.5,29.78,WSW,241,0.0,0.0,42,0.00,,,0.00,WeatherCatV1.21B27,2013-08-23 03:52:00,
2013-08-22 20:57:00,71.7,48.0,29.78,WSW,241,0.0,0.0,43,0.00,,,0.00,WeatherCatV1.21B27,2013-08-23 03:57:00,
2013-08-22 21:01:00,71.6,47.9,29.78,WSW,242,0.0,0.0,43,0.00,,,0.00,WeatherCatV1.21B27,2013-08-23 04:01:00,
2013-08-22 21:06:00,71.5,48.4,29.78,WSW,242,0.0,0.0,44,0.00,,,0.00,WeatherCatV1.21B27,2013-08-23 04:06:00,
2013-08-22 21:11:00,71.3,48.2,29.78,WSW,242,0.0,0.0,44,0.00,,,0.00,WeatherCatV1.21B27,2013-08-23 04:11:00,
2013-08-22 21:16:00,71.0,48.6,29.78,WSW,242,0.0,0.0,45,0.00,,,0.00,WeatherCatV1.21B27,2013-08-23 04:16:00,
2013-08-22 21:21:00,70.7,47.7,29.78,WSW,242,0.0,0.0,44,0.00,,,0.00,WeatherCatV1.21B27,2013-08-23 04:21:00,
2013-08-22 21:26:00,70.6,47.0,29.78,WSW,242,0.0,0.0,43,0.00,,,0.00,WeatherCatV1.21B27,2013-08-23 04:26:00,
2013-08-22 21:31:00,70.3,47.3,29.78,WSW,242,0.0,0.0,44,0.00,,,0.00,WeatherCatV1.21B27,2013-08-23 04:31:00,
2013-08-22 21:36:00,69.8,48.7,29.79,WSW,241,0.0,0.0,47,0.00,,,0.00,WeatherCatV1.21B27,2013-08-23 04:36:00,
2013-08-22 21:41:00,69.2,48.7,29.79,WSW,241,0.0,0.0,48,0.00,,,0.00,WeatherCatV1.21B27,2013-08-23 04:41:00,
2013-08-22 21:46:00,68.3,48.9,29.79,WSW,242,0.0,0.0,50,0.00,,,0.00,WeatherCatV1.21B27,2013-08-23 04:46:00,
2013-08-22 21:51:00,67.1,48.4,29.79,WSW,241,0.0,0.0,51,0.00,,,0.00,WeatherCatV1.21B27,2013-08-23 04:51:00,
2013-08-22 21:56:00,66.4,48.7,29.79,WSW,241,0.0,0.0,53,0.00,,,0.00,WeatherCatV1.21B27,2013-08-23 04:56:00,
2013-08-22 22:01:00,66.3,48.7,29.79,WSW,242,0.0,0.0,53,0.00,,,0.00,WeatherCatV1.21B27,2013-08-23 05:01:00,
2013-08-22 22:06:00,66.2,48.0,29.79,WSW,242,0.0,0.0,52,0.00,,,0.00,WeatherCatV1.21B27,2013-08-23 05:06:00,
2013-08-22 22:11:00,66.0,48.4,29.79,WSW,243,0.0,0.0,53,0.00,,,0.00,WeatherCatV1.21B27,2013-08-23 05:11:00,
2013-08-22 22:16:00,65.8,48.7,29.79,WSW,245,0.0,1.0,54,0.00,,,0.00,WeatherCatV1.21B27,2013-08-23 05:16:00,
2013-08-22 22:21:00,65.6,48.5,29.79,WSW,248,0.0,1.0,54,0.00,,,0.00,WeatherCatV1.21B27,2013-08-23 05:21:00,
2013-08-22 22:26:00,65.3,48.7,29.80,WSW,248,0.0,0.0,55,0.00,,,0.00,WeatherCatV1.21B27,2013-08-23 05:26:00,
2013-08-22 22:31:00,64.6,48.5,29.79,WSW,248,0.0,0.0,56,0.00,,,0.00,WeatherCatV1.21B27,2013-08-23 05:31:00,
2013-08-22 22:36:00,64.2,48.6,29.80,WSW,248,0.0,0.0,57,0.00,,,0.00,WeatherCatV1.21B27,2013-08-23 05:36:00,
2013-08-22 22:41:00,64.1,48.5,29.79,WSW,249,0.0,0.0,57,0.00,,,0.00,WeatherCatV1.21B27,2013-08-23 05:41:00,
2013-08-22 22:46:00,64.4,48.4,29.79,WSW,248,0.0,0.0,56,0.00,,,0.00,WeatherCatV1.21B27,2013-08-23 05:46:00,
2013-08-22 22:51:00,64.6,48.5,29.79,WSW,248,0.0,0.0,56,0.00,,,0.00,WeatherCatV1.21B27,2013-08-23 05:51:00,
2013-08-22 22:55:00,64.9,47.9,29.79,WSW,248,0.0,0.0,54,0.00,,,0.00,WeatherCatV1.21B27,2013-08-23 05:55:00,
2013-08-22 22:56:00,64.9,48.8,29.79,WSW,248,0.0,0.0,56,0.00,,,0.00,WeatherCatV1.21B27,2013-08-23 05:56:00,
2013-08-22 23:00:00,64.9,48.3,29.79,WSW,248,0.0,0.0,55,0.00,,,0.00,WeatherCatV1.21B27,2013-08-23 06:00:00,
2013-08-22 23:05:00,64.9,48.3,29.79,WSW,248,0.0,0.0,55,0.00,,,0.00,WeatherCatV1.21B27,2013-08-23 06:05:00,
2013-08-22 23:10:00,64.9,48.3,29.79,WSW,248,0.0,0.0,55,0.00,,,0.00,WeatherCatV1.21B27,2013-08-23 06:10:00,
2013-08-22 23:15:00,64.9,48.3,29.79,WSW,248,0.0,0.0,55,0.00,,,0.00,WeatherCatV1.21B27,2013-08-23 06:15:00,
2013-08-22 23:20:00,64.9,48.3,29.79,WSW,248,0.0,0.0,55,0.00,,,0.00,WeatherCatV1.21B27,2013-08-23 06:20:00,
2013-08-22 23:25:00,64.9,48.3,29.79,WSW,248,0.0,0.0,55,0.00,,,0.00,WeatherCatV1.21B27,2013-08-23 06:25:00,
2013-08-22 23:30:00,64.9,48.3,29.79,WSW,248,0.0,0.0,55,0.00,,,0.00,WeatherCatV1.21B27,2013-08-23 06:30:00,
2013-08-22 23:35:00,64.9,48.3,29.79,WSW,248,0.0,0.0,55,0.00,,,0.00,WeatherCatV1.21B27,2013-08-23 06:35:00,
2013-08-22 23:40:00,64.9,48.3,29.79,WSW,248,0.0,0.0,55,0.00,,,0.00,WeatherCatV1.21B27,2013-08-23 06:40:00,
2013-08-22 23:45:00,64.9,48.3,29.79,WSW,248,0.0,0.0,55,0.00,,,0.00,WeatherCatV1.21B27,2013-08-23 06:45:00,
2013-08-22 23:50:00,64.5,48.5,29.79,WSW,248,0.0,1.0,56,0.00,,,0.00,WeatherCatV1.21B27,2013-08-23 06:50:00,
2013-08-22 23:55:00,64.5,48.5,29.79,WSW,248,0.0,1.0,56,0.00,,,0.00,WeatherCatV1.21B27,2013-08-23 06:55:00,